Time,TemperatureF,DewpointF,PressureIn,WindDirection,WindDirectionDegrees,WindSpeedMPH,WindSpeedGustMPH,Humidity,HourlyPrecipIn,Conditions,Clouds,dailyrainin,SolarRadiationWatts/m^2,SoftwareType,DateUTC
2013-06-26 00:03:00,61.5,-99.9,29.98,South,180,0.0,2.0,0,0.00,,,0.41,0,weatherlink.com 1.10,2013-06-26 07:03:00,
2013-06-26 00:18:00,61.5,-99.9,29.97,South,180,0.0,0.0,0,0.00,,,0.41,0,weatherlink.com 1.10,2013-06-26 07:18:00,
2013-06-26 00:33:00,61.4,-99.9,29.97,South,180,0.0,0.0,0,0.01,,,0.42,0,weatherlink.com 1.10,2013-06-26 07:33:00,
2013-06-26 00:48:00,61.5,-99.9,29.97,South,180,0.0,0.0,0,0.01,,,0.42,0,weatherlink.com 1.10,2013-06-26 07:48:00,
2013-06-26 01:03:00,61.6,-99.9,29.96,South,180,0.0,0.0,0,0.01,,,0.00,0,weatherlink.com 1.10,2013-06-26 08:03:00,
2013-06-26 01:18:00,61.9,-99.9,29.96,South,180,1.0,2.0,0,0.01,,,0.00,0,weatherlink.com 1.10,2013-06-26 08:18:00,
2013-06-26 01:33:00,61.6,-99.9,29.96,South,180,0.0,4.0,0,0.00,,,0.00,0,weatherlink.com 1.10,2013-06-26 08:33:00,
2013-06-26 01:48:00,61.7,-99.9,29.96,South,180,0.0,1.0,0,0.00,,,0.00,0,weatherlink.com 1.10,2013-06-26 08:48:00,
2013-06-26 02:03:00,61.7,-99.9,29.96,South,180,1.0,2.0,0,0.00,,,0.00,0,weatherlink.com 1.10,2013-06-26 09:03:00,
2013-06-26 02:18:00,61.4,-99.9,29.97,SSW,193,4.0,5.0,0,0.00,,,0.00,0,weatherlink.com 1.10,2013-06-26 09:18:00,
2013-06-26 02:33:00,60.9,-99.9,29.97,SSW,205,1.0,4.0,0,0.00,,,0.00,0,weatherlink.com 1.10,2013-06-26 09:33:00,
2013-06-26 02:48:00,60.8,-99.9,29.97,SSW,205,1.0,2.0,0,0.00,,,0.00,0,weatherlink.com 1.10,2013-06-26 09:48:00,
2013-06-26 03:04:00,60.7,-99.9,29.97,SSW,205,0.0,1.0,0,0.00,,,0.00,0,weatherlink.com 1.10,2013-06-26 10:04:00,
2013-06-26 03:19:00,60.9,-99.9,29.97,SSW,205,0.0,0.0,0,0.00,,,0.00,0,weatherlink.com 1.10,2013-06-26 10:19:00,
2013-06-26 03:34:00,61.0,-99.9,29.97,SSW,205,0.0,0.0,0,0.00,,,0.00,0,weatherlink.com 1.10,2013-06-26 10:34:00,
2013-06-26 03:49:00,61.2,-99.9,29.97,SSW,205,2.0,2.0,0,0.00,,,0.00,0,weatherlink.com 1.10,2013-06-26 10:49:00,
2013-06-26 04:04:00,61.5,-99.9,29.98,SSW,205,1.0,2.0,0,0.01,,,0.01,0,weatherlink.com 1.10,2013-06-26 11:04:00,
2013-06-26 04:19:00,61.4,-99.9,29.98,SSW,205,1.0,2.0,0,0.01,,,0.01,0,weatherlink.com 1.10,2013-06-26 11:19:00,
2013-06-26 04:34:00,61.1,-99.9,29.98,SSW,205,0.0,1.0,0,0.01,,,0.01,0,weatherlink.com 1.10,2013-06-26 11:34:00,
2013-06-26 04:49:00,61.4,-99.9,29.98,SSW,205,1.0,1.0,0,0.01,,,0.01,0,weatherlink.com 1.10,2013-06-26 11:49:00,
2013-06-26 05:04:00,61.1,-99.9,29.99,SSW,205,0.0,1.0,0,0.00,,,0.01,0,weatherlink.com 1.10,2013-06-26 12:04:00,
2013-06-26 05:19:00,60.9,-99.9,29.99,SSW,205,0.0,1.0,0,0.00,,,0.01,0,weatherlink.com 1.10,2013-06-26 12:19:00,
2013-06-26 05:34:00,61.4,-99.9,29.99,SSW,204,0.0,1.0,0,0.00,,,0.01,0,weatherlink.com 1.10,2013-06-26 12:34:00,
2013-06-26 05:49:00,61.3,-99.9,30.00,SSW,204,0.0,1.0,0,0.00,,,0.01,0,weatherlink.com 1.10,2013-06-26 12:49:00,
2013-06-26 06:04:00,61.6,-99.9,30.00,SSW,202,1.0,1.0,0,0.00,,,0.01,9,weatherlink.com 1.10,2013-06-26 13:04:00,
2013-06-26 06:20:00,61.4,-99.9,30.00,SSW,201,0.0,1.0,0,0.00,,,0.01,14,weatherlink.com 1.10,2013-06-26 13:20:00,
2013-06-26 06:35:00,61.3,-99.9,30.01,SSW,201,0.0,1.0,0,0.00,,,0.01,26,weatherlink.com 1.10,2013-06-26 13:35:00,
2013-06-26 06:50:00,61.5,-99.9,30.01,SSW,201,0.0,1.0,0,0.00,,,0.01,35,weatherlink.com 1.10,2013-06-26 13:50:00,
2013-06-26 07:05:00,62.0,-99.9,30.01,SSW,201,2.0,3.0,0,0.00,,,0.01,58,weatherlink.com 1.10,2013-06-26 14:05:00,
2013-06-26 07:20:00,62.1,-99.9,30.02,South,174,2.0,5.0,0,0.00,,,0.01,63,weatherlink.com 1.10,2013-06-26 14:20:00,
2013-06-26 07:35:00,62.4,-99.9,30.02,South,182,2.0,5.0,0,0.00,,,0.01,91,weatherlink.com 1.10,2013-06-26 14:35:00,
2013-06-26 07:50:00,62.6,-99.9,30.02,SSE,153,1.0,5.0,0,0.00,,,0.01,104,weatherlink.com 1.10,2013-06-26 14:50:00,
2013-06-26 08:05:00,63.0,-99.9,30.02,SSE,161,0.0,3.0,0,0.00,,,0.01,155,weatherlink.com 1.10,2013-06-26 15:05:00,
2013-06-26 08:20:00,63.5,-99.9,30.02,South,186,1.0,5.0,0,0.00,,,0.01,176,weatherlink.com 1.10,2013-06-26 15:20:00,
2013-06-26 08:35:00,64.1,-99.9,30.03,SSW,192,5.0,5.0,0,0.00,,,0.01,243,weatherlink.com 1.10,2013-06-26 15:35:00,
2013-06-26 08:50:00,64.5,-99.9,30.03,South,171,3.0,6.0,0,0.00,,,0.01,262,weatherlink.com 1.10,2013-06-26 15:50:00,
2013-06-26 09:05:00,65.2,-99.9,30.03,SSE,167,2.0,6.0,0,0.00,,,0.01,230,weatherlink.com 1.10,2013-06-26 16:05:00,
2013-06-26 09:20:00,65.6,-99.9,30.04,SSW,194,6.0,6.0,0,0.00,,,0.01,297,weatherlink.com 1.10,2013-06-26 16:20:00,
2013-06-26 09:35:00,66.0,-99.9,30.04,South,185,1.0,6.0,0,0.00,,,0.01,320,weatherlink.com 1.10,2013-06-26 16:35:00,
2013-06-26 09:51:00,66.6,-99.9,30.04,South,186,4.0,6.0,0,0.00,,,0.01,232,weatherlink.com 1.10,2013-06-26 16:51:00,
2013-06-26 10:06:00,66.8,-99.9,30.04,SSW,210,2.0,6.0,0,0.00,,,0.01,353,weatherlink.com 1.10,2013-06-26 17:06:00,
2013-06-26 10:21:00,67.8,-99.9,30.03,SW,217,8.0,10.0,0,0.00,,,0.01,366,weatherlink.com 1.10,2013-06-26 17:21:00,
2013-06-26 10:36:00,68.0,-99.9,30.04,SW,214,4.0,10.0,0,0.00,,,0.01,392,weatherlink.com 1.10,2013-06-26 17:36:00,
2013-06-26 10:51:00,68.0,-99.9,30.05,SSW,194,8.0,10.0,0,0.00,,,0.01,473,weatherlink.com 1.10,2013-06-26 17:51:00,
2013-06-26 11:06:00,70.1,-99.9,30.05,South,178,7.0,10.0,0,0.00,,,0.01,821,weatherlink.com 1.10,2013-06-26 18:06:00,
2013-06-26 11:21:00,71.4,-99.9,30.05,SSW,198,8.0,9.0,0,0.00,,,0.01,647,weatherlink.com 1.10,2013-06-26 18:21:00,
2013-06-26 11:36:00,71.9,-99.9,30.05,SSW,206,6.0,10.0,0,0.00,,,0.01,439,weatherlink.com 1.10,2013-06-26 18:36:00,
2013-06-26 11:51:00,71.0,-99.9,30.05,SW,226,9.0,11.0,0,0.00,,,0.01,448,weatherlink.com 1.10,2013-06-26 18:51:00,
2013-06-26 12:06:00,69.7,-99.9,30.05,SW,230,11.0,13.0,0,0.00,,,0.01,1123,weatherlink.com 1.10,2013-06-26 19:06:00,
2013-06-26 12:21:00,69.5,-99.9,30.05,SW,227,9.0,13.0,0,0.00,,,0.01,954,weatherlink.com 1.10,2013-06-26 19:21:00,
2013-06-26 12:36:00,69.8,-99.9,30.05,SW,220,9.0,13.0,0,0.00,,,0.01,1130,weatherlink.com 1.10,2013-06-26 19:36:00,
2013-06-26 12:51:00,70.0,-99.9,30.06,WSW,247,4.0,10.0,0,0.00,,,0.01,981,weatherlink.com 1.10,2013-06-26 19:51:00,
2013-06-26 13:06:00,69.7,-99.9,30.06,West,265,7.0,10.0,0,0.00,,,0.01,564,weatherlink.com 1.10,2013-06-26 20:06:00,
2013-06-26 13:22:00,70.3,-99.9,30.06,WNW,298,5.0,10.0,0,0.00,,,0.01,533,weatherlink.com 1.10,2013-06-26 20:22:00,
2013-06-26 13:37:00,69.9,-99.9,30.06,West,269,5.0,9.0,0,0.00,,,0.01,480,weatherlink.com 1.10,2013-06-26 20:37:00,
2013-06-26 13:52:00,69.9,-99.9,30.05,West,273,2.0,6.0,0,0.00,,,0.01,703,weatherlink.com 1.10,2013-06-26 20:52:00,
2013-06-26 14:07:00,70.9,-99.9,30.05,West,278,4.0,12.0,0,0.00,,,0.01,865,weatherlink.com 1.10,2013-06-26 21:07:00,
2013-06-26 14:22:00,69.7,-99.9,30.05,WNW,298,6.0,10.0,0,0.00,,,0.01,1097,weatherlink.com 1.10,2013-06-26 21:22:00,
2013-06-26 14:37:00,70.3,-99.9,30.05,West,271,8.0,9.0,0,0.00,,,0.01,930,weatherlink.com 1.10,2013-06-26 21:37:00,
2013-06-26 14:52:00,70.1,-99.9,30.05,West,281,8.0,11.0,0,0.00,,,0.01,902,weatherlink.com 1.10,2013-06-26 21:52:00,
2013-06-26 15:07:00,71.7,-99.9,30.05,West,280,4.0,7.0,0,0.00,,,0.01,863,weatherlink.com 1.10,2013-06-26 22:07:00,
2013-06-26 15:22:00,72.1,-99.9,30.04,West,268,6.0,10.0,0,0.00,,,0.01,837,weatherlink.com 1.10,2013-06-26 22:22:00,
2013-06-26 15:37:00,71.4,-99.9,30.04,WNW,284,7.0,10.0,0,0.00,,,0.01,803,weatherlink.com 1.10,2013-06-26 22:37:00,
2013-06-26 15:52:00,70.3,-99.9,30.03,WNW,293,7.0,11.0,0,0.00,,,0.01,768,weatherlink.com 1.10,2013-06-26 22:52:00,
2013-06-26 16:07:00,70.3,-99.9,30.03,WNW,290,6.0,12.0,0,0.00,,,0.01,735,weatherlink.com 1.10,2013-06-26 23:07:00,
2013-06-26 16:22:00,70.8,-99.9,30.03,West,265,2.0,9.0,0,0.00,,,0.01,696,weatherlink.com 1.10,2013-06-26 23:22:00,
2013-06-26 16:38:00,71.3,-99.9,30.02,WNW,294,8.0,9.0,0,0.00,,,0.01,661,weatherlink.com 1.10,2013-06-26 23:38:00,
2013-06-26 16:53:00,70.8,-99.9,30.02,WNW,303,6.0,10.0,0,0.00,,,0.01,617,weatherlink.com 1.10,2013-06-26 23:53:00,
2013-06-26 17:08:00,70.6,-99.9,30.02,West,266,4.0,12.0,0,0.00,,,0.01,571,weatherlink.com 1.10,2013-06-27 00:08:00,
2013-06-26 17:23:00,69.2,-99.9,30.02,WNW,300,7.0,13.0,0,0.00,,,0.01,529,weatherlink.com 1.10,2013-06-27 00:23:00,
2013-06-26 17:38:00,67.9,-99.9,30.02,NW,308,7.0,11.0,0,0.00,,,0.01,482,weatherlink.com 1.10,2013-06-27 00:38:00,
2013-06-26 17:53:00,69.5,-99.9,30.02,WNW,283,1.0,7.0,0,0.00,,,0.01,434,weatherlink.com 1.10,2013-06-27 00:53:00,
2013-06-26 18:08:00,70.1,-99.9,30.01,WNW,290,6.0,8.0,0,0.00,,,0.01,390,weatherlink.com 1.10,2013-06-27 01:08:00,
2013-06-26 18:23:00,70.1,-99.9,30.01,WNW,288,4.0,7.0,0,0.00,,,0.01,341,weatherlink.com 1.10,2013-06-27 01:23:00,
2013-06-26 18:38:00,69.2,-99.9,30.01,WNW,290,5.0,8.0,0,0.00,,,0.01,295,weatherlink.com 1.10,2013-06-27 01:38:00,
2013-06-26 18:53:00,69.3,-99.9,30.01,NW,309,5.0,8.0,0,0.00,,,0.01,246,weatherlink.com 1.10,2013-06-27 01:53:00,
2013-06-26 19:08:00,68.7,-99.9,30.01,West,277,5.0,9.0,0,0.00,,,0.01,195,weatherlink.com 1.10,2013-06-27 02:08:00,
2013-06-26 19:23:00,69.0,-99.9,30.01,WNW,298,5.0,6.0,0,0.00,,,0.01,142,weatherlink.com 1.10,2013-06-27 02:23:00,
2013-06-26 19:38:00,68.0,-99.9,30.01,WNW,285,3.0,8.0,0,0.00,,,0.01,90,weatherlink.com 1.10,2013-06-27 02:38:00,
2013-06-26 19:53:00,67.9,-99.9,30.01,WNW,282,3.0,5.0,0,0.00,,,0.01,51,weatherlink.com 1.10,2013-06-27 02:53:00,
2013-06-26 20:08:00,66.2,-99.9,30.01,WNW,285,4.0,6.0,0,0.00,,,0.01,19,weatherlink.com 1.10,2013-06-27 03:08:00,
2013-06-26 20:23:00,65.1,-99.9,30.01,West,279,5.0,6.0,0,0.00,,,0.01,12,weatherlink.com 1.10,2013-06-27 03:23:00,
2013-06-26 20:38:00,64.3,-99.9,30.02,NW,316,2.0,5.0,0,0.00,,,0.01,5,weatherlink.com 1.10,2013-06-27 03:38:00,
2013-06-26 20:53:00,63.1,-99.9,30.02,NW,319,0.0,1.0,0,0.00,,,0.01,0,weatherlink.com 1.10,2013-06-27 03:53:00,
2013-06-26 21:08:00,63.0,-99.9,30.03,West,281,2.0,3.0,0,0.00,,,0.01,0,weatherlink.com 1.10,2013-06-27 04:08:00,
2013-06-26 21:23:00,61.9,-99.9,30.03,WNW,282,0.0,5.0,0,0.00,,,0.01,0,weatherlink.com 1.10,2013-06-27 04:23:00,
2013-06-26 21:38:00,61.7,-99.9,30.04,WNW,282,1.0,2.0,0,0.00,,,0.01,0,weatherlink.com 1.10,2013-06-27 04:38:00,
2013-06-26 21:53:00,61.4,-99.9,30.04,WNW,282,0.0,1.0,0,0.00,,,0.01,0,weatherlink.com 1.10,2013-06-27 04:53:00,
2013-06-26 22:08:00,61.1,-99.9,30.04,WNW,282,0.0,0.0,0,0.00,,,0.01,0,weatherlink.com 1.10,2013-06-27 05:08:00,
2013-06-26 22:23:00,60.8,-99.9,30.05,WNW,283,1.0,3.0,0,0.00,,,0.01,0,weatherlink.com 1.10,2013-06-27 05:23:00,
2013-06-26 22:38:00,60.5,-99.9,30.05,WNW,283,0.0,4.0,0,0.00,,,0.01,0,weatherlink.com 1.10,2013-06-27 05:38:00,
2013-06-26 22:53:00,60.4,-99.9,30.05,WNW,282,4.0,5.0,0,0.00,,,0.01,0,weatherlink.com 1.10,2013-06-27 05:53:00,
2013-06-26 23:08:00,59.9,-99.9,30.05,West,267,5.0,6.0,0,0.00,,,0.01,0,weatherlink.com 1.10,2013-06-27 06:08:00,
2013-06-26 23:23:00,59.7,-99.9,30.05,WNW,303,1.0,6.0,0,0.00,,,0.01,0,weatherlink.com 1.10,2013-06-27 06:23:00,
2013-06-26 23:38:00,59.7,-99.9,30.05,NW,308,0.0,4.0,0,0.00,,,0.01,0,weatherlink.com 1.10,2013-06-27 06:38:00,
2013-06-26 23:53:00,59.5,-99.9,30.06,WNW,297,4.0,5.0,0,0.00,,,0.01,0,weatherlink.com 1.10,2013-06-27 06:53:00,